Location: Trebic
(49.2170°N, 15.8830°E)
Time: 00:04:40
(UTC+02:00)

Transit 2A Rocket - Pass Details

Date: 30 July 2019
Orbit: 590 x 913 km, 66.7° (Epoch: 24 August)

Event Time Altitude Azimuth Distance (km) Brightness Sun altitude
Rises 11:21:26 0° 316° (NW) 3,118 7.8 53.2°
Reaches altitude 10° 11:24:10 10° 305° (NW) 2,137 7.1 53.4°
Maximum altitude 11:28:08 26° 249° (WSW) 1,278 6.4 53.9°
Drops below altitude 10° 11:31:50 10° 193° (SSW) 1,989 7.6 54.3°
Sets 11:34:18 0° 180° (S) 2,857 8.4 54.5°
